#timestamp,LO_Frequency,Hit 
1503986415.2,286047000.4,N
1503986435.9,286047000.1,N
1503986455.7,286047001.1,N
1503986475.6,286047004.1,N
1503986495.4,286047001.4,N
1503986515.2,286047001.1,N
1503986535.0,286046999.5,N
1503986536.0,286046999.5,N
1503986555.8,286046993.5,N
1503986575.6,286046994.1,N
1503986595.4,286046993.4,N
1503986615.3,286046998.0,N
1503986635.1,286046997.1,N
1503986655.8,286046996.8,N
1503986675.7,286047000.3,N
1503986695.5,286047002.8,N
1503986715.3,286047001.5,N
1503986735.2,286047003.0,N
1503986755.9,286047003.8,N
1503986775.7,286047007.4,N
1503986795.6,286047001.9,N
1503986815.4,286046999.9,N
1503986835.2,286047007.6,N
1503986855.0,286047008.8,N
1503986855.9,286047008.8,N
1503986875.8,286047010.6,N
1503986895.6,286047011.2,N
1503986915.4,286047009.5,N
1503986935.3,286047013.3,N
1503986955.1,286047012.9,N
1503986956.0,286047012.9,N
1503986975.8,286047013.3,N
1503986995.7,286047016.7,N
1503987015.5,286047016.1,N
1503987035.3,286047018.5,N
1503987055.2,286047017.2,N
1503987075.9,286047017.9,N
1503987095.7,286047018.6,N
1503987115.6,286047017.4,N
1503987135.4,286047020.6,N
1503987155.2,286047022.9,P
1503987175.1,286047011.9,N
1503987176.0,286047011.9,N
1503987195.8,286047012.3,N
1503987215.6,286047011.5,N
1503987235.5,286047014.4,P
1503987255.3,286047005.4,P
1503987275.1,286047005.1,N
1503987295.9,286047006.5,N
1503987315.7,286047012.2,P
1503987335.5,286047003.4,N
1503987355.4,286047003.4,N
1503987375.2,286047006.7,N
1503987395.0,286047005.1,N
1503987395.9,286047005.1,N
1503987415.8,286047004.6,N
1503987435.6,286047003.9,N
1503987455.4,286047005.6,N
1503987475.2,286047005.7,N
1503987495.1,286047010.6,P
1503987496.0,286047010.6,P
1503987515.8,286047007.0,P
1503987535.7,286047006.0,N
1503987555.5,286047005.2,N
1503987575.3,286047006.8,P
1503987595.2,286046998.8,P
1503987615.9,286046999.4,N
1503987635.7,286047000.2,N
1503987655.6,286047001.0,N
1503987675.4,286047002.3,N
1503987695.2,286047000.8,N
1503987715.0,286046997.1,N
1503987716.0,286046997.1,N
1503987735.8,286047000.6,N
1503987755.6,286047002.8,N
1503987775.4,286047001.8,N
1503987795.3,286047001.5,N
1503987815.1,286047001.6,N
1503987835.8,286047002.0,N
1503987855.7,286047005.9,N
1503987875.5,286047005.6,N
1503987895.3,286047004.9,N
1503987915.2,286047005.7,N
1503987935.9,286047005.5,N
1503987955.7,286047002.9,N
1503987975.6,286047005.1,N
1503987995.4,286047005.0,N
1503988015.2,286047003.5,N
1503988035.0,286047004.8,N
1503988036.0,286047004.8,N
1503988055.8,286047004.7,N
1503988075.6,286047007.3,N
1503988095.5,286047008.8,P
1503988115.3,286047003.6,N
1503988135.1,286047004.2,N
1503988155.8,286047002.5,N
1503988175.7,286047001.3,N
1503988195.5,286046998.1,N
1503988215.3,286047004.3,N
1503988235.2,286047003.8,N
1503988255.9,286047005.9,N
1503988275.7,286047002.1,N
1503988295.2,286047002.2,N
1503988315.0,286047004.3,N
1503988315.9,286047004.3,N
1503988335.8,286047003.4,N
1503988355.6,286047002.7,N
1503988375.4,286047004.2,N
1503988395.3,286046998.2,N
1503988415.1,286047002.1,N
1503988435.8,286047001.8,N
1503988455.7,286047002.0,N
1503988475.5,286046999.9,N
1503988495.3,286047003.7,N
1503988515.2,286047001.6,N
1503988535.9,286047003.0,N
1503988555.7,286047003.0,N
1503988575.5,286047001.9,N
1503988595.4,286047001.6,N
1503988615.2,286047007.5,P
1503988635.1,286047000.7,N
1503988636.0,286047000.7,N
1503988655.8,286047000.8,N
1503988675.6,286046996.7,N
1503988695.5,286046998.4,N
1503988715.3,286047000.5,N
1503988735.1,286047000.7,N
1503988755.8,286046998.5,N
1503988775.7,286046995.1,N
1503988795.5,286046996.6,N
1503988815.3,286046998.2,N
1503988835.2,286046999.5,N
1503988855.9,286047000.9,N
1503988875.7,286047002.5,N
1503988895.6,286047002.6,N
1503988915.4,286046998.6,N
1503988935.2,286046993.7,N
1503988955.1,286046993.9,N
1503988956.0,286046993.9,N
1503988975.8,286046995.4,N
1503988995.6,286047004.4,N
1503989015.4,286047002.5,N
1503989035.3,286047004.3,N
1503989055.1,286047004.3,N
1503989075.8,286046998.4,N
1503989095.7,286047002.5,N
1503989115.5,286046999.2,N
1503989135.3,286046998.9,N
1503989155.2,286046999.0,N
1503989175.9,286047002.5,N
1503989195.7,286047001.9,N
1503989215.6,286047001.6,N
1503989235.4,286047005.7,N
1503989255.2,286047001.0,N
1503989275.1,286047001.1,N
1503989276.0,286047001.1,N
1503989295.8,286046997.3,N
1503989315.6,286046995.7,N
1503989335.5,286046997.1,N
1503989355.3,286046994.9,N
1503989375.1,286047001.1,N
1503989395.8,286046997.1,N
1503989415.7,286046997.2,N
1503989435.5,286046995.7,N
1503989455.3,286046996.1,N
1503989475.2,286046991.8,N
1503989495.0,286046996.3,N
1503989495.9,286046996.3,N
1503989515.7,286046996.1,N
1503989535.6,286046995.5,N
1503989555.4,286046995.0,N
1503989575.2,286046999.6,N
1503989595.1,286046998.9,N
1503989596.0,286046998.9,N
1503989615.8,286046999.2,N
1503989635.6,286046997.2,N
1503989655.5,286046998.0,N
1503989675.3,286046995.8,N
1503989695.1,286046996.0,N
1503989715.9,286046993.6,N
1503989735.7,286046994.5,N
1503989755.5,286046992.2,N
1503989775.4,286046992.3,N
1503989795.2,286046995.6,N
1503989815.0,286046997.4,N
1503989815.9,286046997.4,N
1503989835.8,286046996.5,N
1503989855.6,286046999.5,N
1503989875.4,286046998.9,N
1503989895.3,286046996.2,N
1503989915.1,286046997.5,N
1503989916.0,286046997.5,N
1503989935.8,286046996.4,N
1503989955.7,286046996.4,N
1503989975.5,286046993.7,P
1503989995.3,286046997.9,N
